Disclaimer

Please do not use the information listed here in-flight or in-navigation, as they are not provided to us by the airports but are provided by volunteers, so they might be outdated.

Search


Regions


Airport information page

No radio frequency information is available.

Airport informations:
Latitude: 60° 09' 27.44" N
Longitude: 012° 59' 28.57" E
Elevation: 393 feet - 120 meters
Operating hours: N/A
Operating agency: Civil government, landing fees and diplomatic clearance may be required
Timezone: UTC+1(+2DT)
Fuel: Jet A1, without icing nhibitor.

100/130 MIL Spec, low lead, aviation gasoline (BLUE)

Runway information:
16/34 - 5219 x 95 feet< - >1591 x 29 meters

Recent METARs:
ESST 221920Z AUTO VRB01KT 9999 FEW007/// OVC044/// M07/M08 Q1007
ESST 221950Z AUTO 00000KT 9999 SCT006/// OVC044/// M07/M07 Q1007
ESST 222020Z AUTO 00000KT 9999 OVC005/// M07/M07 Q1007

Airport on the map: